Location: Foots Cray
(51.4000°N, 0.1167°E)
Time: 22:00:51
(UTC+00:00)

Cosmos 1766 - Pass Details

Date: 15 May 2026
Orbit: 397 x 405 km, 82.5° (Epoch: 11 June)

Event Time Altitude Azimuth Distance (km) Brightness Sun altitude
Rises 21:51:53 0° 354° (N) 2,367 7.8 -14.5°
Reaches altitude 10° 21:54:00 10° 1° (N) 1,498 6.5 -14.7°
Maximum altitude 21:57:08 43° 75° (ENE) 593 3.3 -14.9°
Enters shadow 21:58:11 31° 124° (ESE) 751 3.5 -15.0°
